Regional Weather Roundup
Issued by NWS Wakefield, VA

Home | Current Version | Previous Version | Graphics & Text | Print | Product List | Glossary On
Versions: 1 2 3 4 5 6 7 8 9 10 11 12 13 14 15 16 17 18 19 20 21 22 23 24 25 26 27 28 29 30 31 32 33 34 35 36 37 38 39 40 41 42 43 44 45 46 47 48 49 50
000
ASUS41 KAKQ 031215
RWRAKQ

REGIONAL WEATHER ROUNDUP
NATIONAL WEATHER SERVICE WAKEFIELD VA
800 AM EDT MON AUG 03 2015

Note: "fair" indicates few or no clouds below 12,000 feet with no
significant weather and/or obstructions to visibility. * = Denotes
station may not report precipitation (e.g., rain,snow,etc.),
thunder or fog.

VAZ042-051-052>054-056-031300-
NORTHERN VIRGINIA

CITY           SKY/WX    TMP DP  RH WIND       PRES   REMARKS
WASH NATIONAL  MOSUNNY   76  63  64 SW7       29.88S
DULLES         SUNNY     70  62  76 S8        29.88S
FORT BELVOIR   NOT AVBL
QUANTICO       MOSUNNY   76  64  67 CALM      29.85
FREDERICKSBRG* SUNNY     71  64  80 CALM      29.88S
STAFFORD*      SUNNY     69  62  78 CALM      29.93S
WARRENTON      SUNNY     70  66  87 CALM      29.88S
CULPEPER*      SUNNY     68  63  84 CALM      29.89F
MANASSAS*      SUNNY     63  63 100 S6        29.88S
LEESBURG*      SUNNY     72  64  78 S3        29.89R
WINCHESTER     SUNNY     72  59  64 SW9       29.89R
FRONT ROYAL*   FAIR      68  59  73 S5        29.89R
LURAY*         FAIR      68  61  77 SW3       29.92R
$$

VAZ048-049-060>072-079>083-031300-
CENTRAL AND SOUTH CENTRAL VIRGINIA

CITY           SKY/WX    TMP DP  RH WIND       PRES   REMARKS
RICHMOND       MOSUNNY   73  66  78 S6        29.90R
CHESTERFIELD*  FAIR      70  55  60 CALM      29.92R
PETERSBURG*    SUNNY     71  71 100 CALM      29.92R
HANOVER        SUNNY     70  67  90 CALM      29.92R
TAPPAHANNOCK*  SUNNY     72  67  83 CALM      29.91R
QUINTON*       FAIR      70  68  94 CALM      29.90R
CHARLOTTSVILLE SUNNY     68  62  81 S5        29.89F
GORDONSVILLE*  FAIR      66  63  88 CALM      29.89S
ORANGE*        SUNNY     68  64  88 CALM      29.91S
LOUISA*        SUNNY     70  63  78 SW3       29.89S
BUMPASS*       FAIR      67  63  85 CALM      29.90S
FARMVILLE*     SUNNY     64  64  99 CALM      29.91S
CREWE*         FAIR     N/A N/A N/A CALM      29.91S
FORT PICKETT*  FAIR      70  65  85 SW3       29.92S
CHASE CITY*    FAIR      70  67  89 CALM      29.92S
CLARKSVILLE*   FAIR      68  64  88 CALM      29.92R
SOUTH HILL*    SUNNY     69  67  92 CALM      29.98R
LAWRENCEVILLE* FAIR      70  66  88 CALM      29.92R
EMPORIA*       SUNNY     70  66  88 CALM      29.94R
$$

VAZ088>098-031300-
SOUTHEAST VIRGINIA

CITY           SKY/WX    TMP DP  RH WIND       PRES   REMARKS
NORFOLK        SUNNY     77  72  84 SW10      29.91R
VIRGINIA BEACH MOSUNNY   78  73  84 SW8       29.92R
NORFOLK NAVAL  MOSUNNY   76  72  87 SW8       29.92S
WEST POINT*    SUNNY     75  71  87 S3        29.92R
SALUDA*        FAIR      73  71  94 S3        29.90S
NEWPORT NEWS   MOSUNNY   76  73  91 SW8       29.91R
LANGLEY AFB    SUNNY     77  73  88 SW12      29.90S
FORT EUSTIS    MOSUNNY   75  75 100 S7        29.90R
WILLIAMSBURG*  SUNNY     75  73  94 CALM      29.92S
HR EXEC AP*    FAIR      73  72  94 SW5       29.94S
FRANKLIN*      PTSUNNY   73  71  95 SW6       29.93R FOG
WAKEFIELD      SUNNY     73  69  87 S5        29.92R FOG
$$

VAZ020-022-025-037-045-031300-
WEST CENTRAL AND SOUTHWEST VIRGINIA

CITY           SKY/WX    TMP DP  RH WIND       PRES   REMARKS
STAUNTON*      SUNNY     68  60  75 SW3       29.94F
WAYNESBORO*    FAIR      63  57  81 CALM      29.94F
HOT SPRINGS VA SUNNY     64  54  69 W8        30.04R
LYNCHBURG      SUNNY     65  61  87 CALM      29.94R
DANVILLE       SUNNY     66  63  90 SW3       29.94R
SOUTH BOSTON*  FAIR      66  64  94 CALM      29.93R
MARTINSVILLE   SUNNY     65  65 100 CALM      29.97S
ROANOKE        MOSUNNY   68  59  73 CALM      29.97R
BLACKSBURG     SUNNY     62  60  94 CALM      30.03R
DUBLIN*          N/A     64  62  92 CALM      30.01S
MARION*        SUNNY     62  58  86 CALM      30.05R
HILLSVILLE*    SUNNY     62  58  88 SW3       30.02R
RICHLANDS*     FAIR      63  58  84 CALM      30.04R
WISE*          SUNNY     66  55  68 CALM      30.05R
ABINGDON*      MOSUNNY   68  60  74 CALM      30.01R
$$

MDZ021>025-VAZ099-100-031300-
SOUTHERN MARYLAND AND THE DELMARVA PENINSULA

CITY           SKY/WX    TMP DP  RH WIND       PRES   REMARKS
PATUXENT RIVER MOSUNNY   75  69  81 SW7       29.89R
BAY BRIDGE APT   N/A     77  63  61 SW7       29.87F
LEONARDTOWN    SUNNY     73  68  83 CALM      29.91R
DOVER          SUNNY     73  70  89 S8        29.87
GEORGETOWN     SUNNY     74  70  87 SW7       29.90R
EASTON         MOSUNNY   77  72  83 SW6       29.92R
CAMBRIDGE      SUNNY     72  68  88 CALM      29.89R
SALISBURY      SUNNY     74  72  93 CALM      29.90R
OCEAN CITY     SUNNY     76  72  87 SW3       29.90R
WALLOPS ISLAND SUNNY     76  75  97 SW5       29.91R
ACCOMACK*      SUNNY     75  59  57 SW5       29.91S
$$

NCZ012>017-030>032-031300-
NORTH CENTRAL AND EASTERN NORTH CAROLINA

CITY           SKY/WX    TMP DP  RH WIND       PRES   REMARKS
ROANOKE RAPIDS FAIR      70  68  94 SW6       29.93R
RALEIGH        PTSUNNY   74  71  91 SW7       29.94R
ELIZABETH CITY SUNNY     78  74  87 SW6       29.94R
AHOSKIE*       SUNNY     73  71  93 S5        29.94R
EDENTON*         N/A     78  73  84 SW12      29.94R
CURRITUCK*     SUNNY     77  74  90 SW3       29.94R
KILL DEVIL HLS SUNNY     78  73  83 S3        29.94R
MANTEO         MOSUNNY   76  72  86 SW13      29.96R
CAPE HATTERAS  RAIN      72  70  93 N5        29.96F
TARBORO*         N/A     74  73  96 S3        29.95R
GOLDSBORO      MOSUNNY   74  73  96 S5        29.93R
WASHINGTON     MOSUNNY   75  73  93 S7        29.95R
GREENVILLE     SUNNY     77  73  88 SW6       29.96R
NEW BERN       CLOUDY    75  72  90 SW6       29.97R
WILMINGTON     CLOUDY    75  72  90 CALM      29.94S
$$

VAZ048-031300-
ELSEWHERE

CITY           SKY/WX    TMP DP  RH WIND       PRES   REMARKS
HARRISBURG PA  SUNNY     72  62  71 W7        29.86R
BALTIMORE      MOSUNNY   73  64  73 SW5       29.87R
ANNAPOLIS      SUNNY     74  62  66 W3        29.87S
ANDREWS AFB    SUNNY     73  63  70 S8        29.88R
PHILADELPHIA   MOSUNNY   76  65  68 SW9       29.87S
HENDERSON NC   SUNNY     72  66  83 SW6       29.94R
GREENSBORO     MOSUNNY   72  66  81 SW6       29.94R
ROCKY MOUNT    PTSUNNY   75  72  90 S5        29.95R FOG
$$

VAZ100-031300-
MARINE

STATION/POSITION TIME  TEMP    WIND        PRES    WAVE   SWELL
                       AIR SEA DIR/SP/G            HT/PER HT/PER
                 (UTC) (F)     (DEG/KT/KT) (MB)    (FT/S) (FT/S)
BRANDYWINE LGT   1100   75 76  240/ 11/ 12 1012.0S
CAPE MAY NJ      1100   75 75  230/  8/  9 1011.5R
LEWES DE         1100   73 72  230/  5/  7 1011.8R
15NM E FENWICK I 1150   78 79  240/  8/ 10 1012.5R   2/11   2/11
OCEAN-CITY-INLET 1100   74 77  260/  4/  4 1011.4R
WACHAPREAGUE VA  1100   75 82  250/  1/  2 1012.5R
GOOSES REEF MD   1200   78 81  240/ 12/ 14 1012.7R
COVE POINT MD    1100   75     250/  9/ 12 1012.3R
SOLOMONS ISLAND  1100      83                N/A
BISHOPS HEAD MD  1100   80 80  250/ 10/ 12 1010.9R
PINEY POINT MD   1100          230/  7/  8   N/A
POTOMAC MD       1200   79 82  230/  8/ 10 1011.3R   1
CAMBRIDGE MD     1100   73 84  210/  2/  4 1010.9R
LEWISETTA VA     1100   74 83  240/  4/  5 1011.6R
RAPPAHANNOCK LGT 1100          210/  9/ 11 1012.8R
STINGRAY PT      1200   78 83  230/  8/ 10 1012.8R   0
YORK RVR RNG VA  1100   77     230/ 10/ 12 1011.9R
YORKTOWN VA      1100   74 83  210/  8/ 10 1012.0R
JAMESTOWN VA     1200   74 85  230/  2/  6   N/A
DOMINION TERM VA 1100   76     210/  8/ 11 1012.4R
KIPTOPEKE VA     1100      81  230/  9/ 11   N/A
CHES BAY BRIDGE  1100   76 81  200/ 11/ 12 1012.2R
CAPE HENRY VA    1100   74     220/  6/ 10   N/A
CHESAPEAKE LGHT  1100   77     220/ 12/ 13 1013.3R
WILLOUBY STN VA  1100   76     210/ 14/ 17 1013.3R
CAPE HENRY BUOY  1128      81                N/A     2/11   2/11
1ST LANDING BUOY 1200      80              1012.6R   1/ 4
CAPE CHARLES BUO 1126      78                N/A     2/11   2/11
OFFSHORE WE BUOY 1111      82                N/A     3/11   2/11
64NM E OF VA BCH 1150   81 81  210/ 12/ 16 1012.9R   3/ 6   2/11
DUCK PIER NC     1100   79 75  220/  7/  9 1012.4R
44100 DUCK FRF   1124      81                N/A     2/11   2/11
44056 DUCK FRF   1111      79                N/A     2/12   2/12
OREGON INLET NC  1100   78 84  180/  9/ 12 1013.3R
HATTERAS NC      1100   73 82  190/  4/  8 1014.5R
DIAMOND SHLS NC  1150   75 84  280/  8/ 10 1015.1R   7/ 7   7/ 7


USA.gov is the U.S. government's official web portal to all federal, state and local government web resources and services.